Location: Sobotiste
(48.7170°N, 17.4000°E)
Time: 18:44:56
(UTC+01:00)

O/OREOS (USA 219) - Visible Passes

Search period start: 07 March 2026 00:00
Search period end: 17 March 2026 00:00
Orbit: 576 x 600 km, 72.0° (Epoch: 7 March)

Date Brightness Start Highest point End Pass type
(mag) Time Alt. Az. Time Alt. Az. Time Alt. Az.
7 Mar ? 18:48:43 10° N 18:52:17 24° NE 18:54:05 18° E visible
7 Mar ? 20:26:46 10° NW 20:30:36 46° W 20:30:36 46° W visible
8 Mar ? 18:55:52 10° NNW 18:59:51 34° NE 19:01:58 22° ESE visible
8 Mar ? 20:34:24 10° NW 20:38:13 30° WSW 20:38:29 30° WSW visible
9 Mar ? 19:03:06 10° NNW 19:07:21 50° ENE 19:09:56 22° SE visible
9 Mar ? 20:42:15 10° NW 20:45:26 20° WSW 20:46:29 18° WSW visible
10 Mar ? 19:10:26 10° NNW 19:14:48 76° ENE 19:18:01 17° SSE visible
10 Mar ? 20:50:35 10° WNW 20:52:35 13° W 20:54:35 10° SW visible
11 Mar ? 19:17:50 10° NNW 19:22:10 70° WSW 19:26:16 11° SSE visible
12 Mar ? 19:25:20 10° NW 19:29:28 44° WSW 19:33:33 10° S visible
13 Mar ? 19:32:58 10° NW 19:36:42 29° WSW 19:40:24 10° SSW visible
14 Mar ? 19:40:50 10° WNW 19:43:52 19° WSW 19:46:53 10° SSW visible
15 Mar ? 19:49:16 10° WNW 19:50:59 12° W 19:52:41 10° WSW visible
